When you browse on this site, cookies collect data to enhance your experience and personalize the content and advertising you see.
Visit our Privacy Policy to learn more. By continuing to use the site, you agree to this use of cookies and data.
  • In Österreich
  • Länderverzeichnis
  • Für 7 Tage
  • Wassertemperatur
  • Wetterkarte
  • News
  • Widgets
  • user-avatar
    Anmelden

    Stündliche Wetter Cobija

    Heute, 20 Oktober, Sonntag

    Zeit Temperatur Niederschläge Wind Luftdruck Luftfeuchtigkeit
    00:00 +21°C° 0.4 mm 0 m/S 738 mmHg 99%
    01:00 +21°C° 0 mm 0 m/S 738 mmHg 99%
    02:00 +21°C° 1.9 mm 0 m/S 738 mmHg 99%
    03:00 +21°C° 1.9 mm 0 m/S 738 mmHg 99%
    04:00 +21°C° 1.9 mm 0 m/S 738 mmHg 99%
    05:00 +24°C° 1.8 mm 1 m/S 738 mmHg 99%
    06:00 +24°C° 1.8 mm 1 m/S 739 mmHg 98%
    07:00 +24°C° 0 mm 1 m/S 740 mmHg 98%
    08:00 +25°C° 2.2 mm 1 m/S 740 mmHg 98%
    09:00 +25°C° 2.2 mm 1 m/S 740 mmHg 97%
    10:00 +25°C° 2.2 mm 1 m/S 740 mmHg 97%
    11:00 +26°C° 1 mm 1 m/S 739 mmHg 89%
    12:00 +28°C° 1 mm 1 m/S 738 mmHg 81%
    13:00 +27°C° 1 mm 0 m/S 737 mmHg 73%
    14:00 +30°C° 0 mm 1 m/S 736 mmHg 70%
    15:00 +30°C° 0 mm 1 m/S 736 mmHg 68%
    16:00 +30°C° 0 mm 1 m/S 735 mmHg 66%
    17:00 +29°C° 0 mm 1 m/S 735 mmHg 73%
    18:00 +27°C° 0 mm 1 m/S 736 mmHg 80%
    19:00 +24°C° 0 mm 0 m/S 736 mmHg 86%
    20:00 +23°C° 0 mm 0 m/S 736 mmHg 87%
    21:00 +23°C° 0 mm 0 m/S 737 mmHg 87%
    22:00 +23°C° 0 mm 0 m/S 737 mmHg 87%
    23:00 +23°C° 0 mm 0 m/S 737 mmHg 88%

    Morgen, 21 Oktober, Montag

    Zeit Temperatur Niederschläge Wind Luftdruck Luftfeuchtigkeit
    00:00 +22°C° 0 mm 0 m/S 736 mmHg 89%
    01:00 +22°C° 0 mm 0 m/S 736 mmHg 90%
    02:00 +22°C° 0 mm 0 m/S 736 mmHg 91%
    03:00 +22°C° 0 mm 0 m/S 736 mmHg 92%
    04:00 +21°C° 0 mm 0 m/S 736 mmHg 93%
    05:00 +23°C° 0 mm 0 m/S 737 mmHg 86%
    06:00 +24°C° 0 mm 0 m/S 737 mmHg 80%
    07:00 +28°C° 0 mm 1 m/S 738 mmHg 73%
    08:00 +30°C° 0 mm 1 m/S 738 mmHg 64%
    09:00 +33°C° 0 mm 1 m/S 738 mmHg 55%
    10:00 +35°C° 0 mm 1 m/S 738 mmHg 47%
    11:00 +35°C° 0 mm 1 m/S 737 mmHg 45%
    12:00 +36°C° 0 mm 1 m/S 736 mmHg 44%
    13:00 +36°C° 0 mm 1 m/S 735 mmHg 43%
    14:00 +35°C° 0.1 mm 1 m/S 735 mmHg 46%
    15:00 +34°C° 0.1 mm 1 m/S 734 mmHg 50%
    16:00 +34°C° 0.1 mm 1 m/S 734 mmHg 53%
    17:00 +31°C° 1.2 mm 1 m/S 734 mmHg 68%
    18:00 +28°C° 1.2 mm 1 m/S 735 mmHg 82%
    19:00 +25°C° 1.2 mm 1 m/S 735 mmHg 97%
    20:00 +25°C° 0.3 mm 1 m/S 735 mmHg 97%
    21:00 +25°C° 0.3 mm 1 m/S 736 mmHg 98%
    22:00 +23°C° 0.3 mm 0 m/S 736 mmHg 98%
    23:00 +23°C° 0 mm 0 m/S 736 mmHg 97%

    übermorgen, 22 Oktober, Dienstag

    Zeit Temperatur Niederschläge Wind Luftdruck Luftfeuchtigkeit
    00:00 +22°C° 0 mm 0 m/S 736 mmHg 97%
    01:00 +22°C° 0 mm 0 m/S 736 mmHg 97%
    02:00 +22°C° 0.6 mm 0 m/S 736 mmHg 97%
    03:00 +22°C° 0.6 mm 0 m/S 736 mmHg 97%
    04:00 +22°C° 0.6 mm 0 m/S 736 mmHg 98%
    05:00 +24°C° 3.3 mm 1 m/S 736 mmHg 98%
    06:00 +24°C° 3.3 mm 1 m/S 737 mmHg 98%
    07:00 +24°C° 3.3 mm 1 m/S 738 mmHg 99%
    08:00 +24°C° 8.9 mm 1 m/S 738 mmHg 99%
    09:00 +24°C° 8.9 mm 1 m/S 739 mmHg 99%
    10:00 +24°C° 8.9 mm 1 m/S 739 mmHg 99%
    11:00 +24°C° 5.3 mm 1 m/S 738 mmHg 99%
    12:00 +24°C° 5.3 mm 1 m/S 738 mmHg 99%
    13:00 +24°C° 5.3 mm 1 m/S 737 mmHg 99%
    14:00 +24°C° 0.8 mm 1 m/S 737 mmHg 98%
    15:00 +24°C° 0.8 mm 1 m/S 736 mmHg 98%
    16:00 +25°C° 0.8 mm 1 m/S 736 mmHg 97%
    17:00 +24°C° 0 mm 1 m/S 736 mmHg 98%
    18:00 +24°C° 0 mm 1 m/S 736 mmHg 98%
    19:00 +24°C° 0 mm 1 m/S 736 mmHg 99%
    20:00 +23°C° 0 mm 1 m/S 737 mmHg 99%
    21:00 +21°C° 0 mm 0 m/S 737 mmHg 99%
    22:00 +21°C° 0 mm 0 m/S 737 mmHg 99%
    23:00 +21°C° 0 mm 0 m/S 736 mmHg 99%

    23 Oktober, Mittwoch

    Zeit Temperatur Niederschläge Wind Luftdruck Luftfeuchtigkeit
    00:00 +21°C° 0 mm 0 m/S 736 mmHg 99%
    01:00 +20°C° 0 mm 0 m/S 736 mmHg 99%
    02:00 +20°C° 0 mm 0 m/S 736 mmHg 99%
    03:00 +20°C° 0 mm 0 m/S 736 mmHg 99%
    04:00 +20°C° 0 mm 0 m/S 736 mmHg 99%
    05:00 +21°C° 0 mm 0 m/S 736 mmHg 96%
    06:00 +22°C° 0 mm 0 m/S 737 mmHg 92%
    07:00 +23°C° 0 mm 0 m/S 737 mmHg 89%
    08:00 +26°C° 0 mm 0 m/S 738 mmHg 75%
    09:00 +30°C° 0 mm 0 m/S 738 mmHg 61%
    10:00 +33°C° 0 mm 0 m/S 738 mmHg 48%
    11:00 +33°C° 0 mm 0 m/S 738 mmHg 47%
    12:00 +33°C° 0 mm 0 m/S 737 mmHg 47%
    13:00 +33°C° 0 mm 0 m/S 736 mmHg 47%
    14:00 +32°C° 0.1 mm 0 m/S 735 mmHg 50%
    15:00 +33°C° 0.1 mm 1 m/S 734 mmHg 53%
    16:00 +33°C° 0.1 mm 1 m/S 734 mmHg 56%
    17:00 +31°C° 0 mm 1 m/S 734 mmHg 62%
    18:00 +29°C° 0 mm 1 m/S 734 mmHg 68%
    19:00 +28°C° 0 mm 1 m/S 735 mmHg 74%
    20:00 +27°C° 0 mm 1 m/S 735 mmHg 78%
    21:00 +26°C° 0 mm 1 m/S 735 mmHg 81%
    22:00 +25°C° 0 mm 1 m/S 736 mmHg 85%
    23:00 +23°C° 0 mm 0 m/S 735 mmHg 86%

    24 Oktober, Donnerstag

    Zeit Temperatur Niederschläge Wind Luftdruck Luftfeuchtigkeit
    00:00 +22°C° 0 mm 0 m/S 735 mmHg 87%
    01:00 +22°C° 0 mm 0 m/S 735 mmHg 88%
    02:00 +22°C° 0 mm 0 m/S 735 mmHg 90%
    03:00 +21°C° 0 mm 0 m/S 735 mmHg 92%
    04:00 +21°C° 0 mm 0 m/S 735 mmHg 93%
    05:00 +22°C° 0 mm 0 m/S 736 mmHg 89%
    06:00 +24°C° 0 mm 0 m/S 737 mmHg 84%
    07:00 +25°C° 0 mm 0 m/S 737 mmHg 80%
    08:00 +29°C° 0 mm 0 m/S 737 mmHg 67%
    09:00 +32°C° 0 mm 0 m/S 738 mmHg 55%
    10:00 +36°C° 0 mm 0 m/S 738 mmHg 42%
    11:00 +35°C° 0 mm 0 m/S 737 mmHg 41%
    12:00 +35°C° 0 mm 0 m/S 736 mmHg 40%
    13:00 +35°C° 0 mm 0 m/S 735 mmHg 40%
    14:00 +34°C° 0 mm 0 m/S 734 mmHg 41%
    15:00 +34°C° 0 mm 0 m/S 733 mmHg 43%
    16:00 +33°C° 0 mm 0 m/S 733 mmHg 45%
    17:00 +33°C° 0.1 mm 1 m/S 733 mmHg 55%
    18:00 +30°C° 0.1 mm 1 m/S 734 mmHg 66%
    19:00 +27°C° 0.1 mm 1 m/S 734 mmHg 76%
    20:00 +27°C° 0.1 mm 1 m/S 735 mmHg 82%
    21:00 +26°C° 0.1 mm 1 m/S 736 mmHg 87%
    22:00 +25°C° 0.1 mm 1 m/S 736 mmHg 93%
    23:00 +24°C° 0.7 mm 1 m/S 736 mmHg 95%

    25 Oktober, Freitag

    Zeit Temperatur Niederschläge Wind Luftdruck Luftfeuchtigkeit
    00:00 +24°C° 0.7 mm 1 m/S 736 mmHg 97%
    01:00 +24°C° 0.7 mm 1 m/S 736 mmHg 99%
    02:00 +22°C° 0.3 mm 0 m/S 736 mmHg 99%
    03:00 +21°C° 0.3 mm 0 m/S 736 mmHg 99%
    04:00 +21°C° 0.3 mm 0 m/S 736 mmHg 99%
    05:00 +22°C° 0.2 mm 0 m/S 737 mmHg 98%
    06:00 +25°C° 0.2 mm 1 m/S 738 mmHg 97%
    07:00 +25°C° 0.2 mm 1 m/S 739 mmHg 96%
    08:00 +26°C° 0 mm 1 m/S 739 mmHg 88%
    09:00 +28°C° 0 mm 1 m/S 739 mmHg 80%
    10:00 +29°C° 0 mm 1 m/S 739 mmHg 72%
    11:00 +31°C° 0 mm 1 m/S 738 mmHg 63%
    12:00 +33°C° 0 mm 1 m/S 737 mmHg 54%
    13:00 +36°C° 0 mm 1 m/S 736 mmHg 45%
    14:00 +35°C° 0 mm 1 m/S 736 mmHg 47%
    15:00 +34°C° 0 mm 1 m/S 735 mmHg 49%
    16:00 +34°C° 0 mm 1 m/S 734 mmHg 50%
    17:00 +32°C° 0 mm 1 m/S 735 mmHg 59%
    18:00 +30°C° 0 mm 1 m/S 735 mmHg 67%
    19:00 +27°C° 0 mm 1 m/S 735 mmHg 76%
    20:00 +27°C° 0 mm 1 m/S 736 mmHg 78%
    21:00 +26°C° 0 mm 1 m/S 736 mmHg 81%
    22:00 +26°C° 0 mm 1 m/S 737 mmHg 83%
    23:00 +26°C° 0.2 mm 1 m/S 736 mmHg 86%
    Mehr zeigen